Wind_Speed
38 37 36 35 34 34 34 34 34 30 27 23 21 19 16 15 15 14 13 12 12 12 12 11 10 10 11 11 12 12 13 14 16 18 19 19 20 20 20 21 23 24 25 26
43 42 43 41 38 37 37 36 35 33 29 26 23 20 18 17 17 17 16 15 14 14 13 14 13 12 13 13 14 14 14 14 15 16 17 19 21 21 22 23 24 25 26 29
45 44 44 44 39 39 39 38 37 35 32 29 27 24 22 22 19 19 18 17 16 16 16 15 14 14 14 15 14 15 15 15 16 17 16 17 19 21 23 25 26 27 29 30
43 42 44 42 40 39 38 37 37 35 33 31 29 27 26 24 23 22 21 19 18 17 17 17 16 16 16 16 14 14 15 16 16 17 17 18 19 21 23 25 27 29 30 31
38 40 41 39 38 37 38 37 35 35 35 34 32 30 28 27 26 25 24 23 21 19 18 18 18 18 17 18 17 17 17 18 19 20 20 21 22 24 25 27 29 30 32 33
35 37 38 35 34 35 36 35 33 34 34 34 33 31 28 28 28 27 26 25 24 23 21 20 20 19 19 19 19 19 20 21 22 23 24 24 26 27 29 30 32 33 33 34
31 32 33 32 31 31 33 31 30 32 33 33 33 31 30 30 30 29 29 27 25 25 24 23 22 22 21 21 21 22 23 23 24 25 26 28 29 30 31 32 33 34 35 35
28 29 28 27 28 28 28 28 27 28 29 31 32 31 31 31 31 30 29 28 26 26 25 24 23 23 23 23 23 24 25 25 27 27 28 29 30 31 32 33 34 35 36 36
24 25 25 24 24 23 23 23 24 24 26 27 29 30 30 29 29 28 28 28 26 25 25 24 24 23 24 24 24 25 27 27 28 29 30 31 32 33 34 34 35 36 37 38
20 20 20 20 21 20 20 20 20 21 22 24 25 25 26 26 26 26 27 26 25 26 25 24 24 24 24 25 26 27 28 29 30 31 32 33 34 35 35 36 37 39 40 41
16 15 14 15 16 16 16 16 16 17 19 20 22 24 25 24 24 24 24 26 25 25 24 24 24 24 25 26 27 28 29 30 32 33 34 35 36 37 38 39 40 41 42 44
11 11 11 11 12 12 13 13 14 15 17 18 19 21 22 23 23 24 23 22 21 23 23 23 23 25 26 27 28 29 31 32 33 34 35 36 38 39 40 42 43 44 45 47
10 10 9 8 8 10 11 12 13 14 16 17 18 19 21 22 22 21 19 19 20 22 22 23 24 25 26 27 29 30 32 33 34 36 37 38 40 41 43 45 47 48 50 52
9 8 8 7 8 9 11 12 13 14 15 16 16 16 16 17 18 18 18 18 19 20 21 22 24 25 27 28 30 32 33 35 36 38 40 41 43 45 47 49 51 53 54 56
5 5 5 7 10 11 12 12 13 13 13 13 13 12 13 14 15 15 16 17 18 20 21 23 25 26 28 30 32 34 35 37 39 41 43 45 47 49 51 53 54 56 57 57
5 4 5 6 7 8 8 9 9 9 9 9 9 9 10 11 12 14 15 17 18 20 22 24 26 28 30 32 34 36 38 40 42 44 47 49 51 53 54 55 56 56 56 56
7 6 6 7 7 7 7 7 7 7 7 7 8 9 10 12 13 15 17 18 20 22 24 26 28 30 32 34 37 39 41 44 46 48 50 52 53 54 55 55 55 54 54 53
9 8 7 7 7 7 7 6 6 7 7 8 9 11 12 14 15 17 18 20 22 24 26 28 31 33 36 38 40 43 45 47 49 50 51 52 52 52 52 52 51 51 50 49
10 9 9 8 7 7 7 7 8 8 9 10 12 13 14 15 17 19 21 23 25 27 29 31 34 37 39 41 43 45 47 48 49 49 49 49 49 49 48 47 46 44 43 42
11 10 9 9 8 8 8 9 9 10 11 12 14 15 16 18 20 22 24 26 28 30 33 35 38 40 41 43 45 46 46 46 46 46 46 45 45 45 44 42 41 40 39 37
12 11 10 9 10 10 10 11 11 12 13 14 16 18 19 21 23 25 27 29 31 33 36 38 39 41 42 42 42 43 43 43 43 43 43 42 42 40 39 38 37 36 35 34
11 11 11 11 11 12 12 13 14 15 16 18 19 21 23 24 26 28 30 32 33 35 36 37 38 39 39 40 40 41 41 41 41 40 40 39 38 37 36 35 34 33 32 31
12 12 12 13 13 14 15 15 17 18 20 21 23 24 26 27 29 30 32 33 34 35 36 37 37 37 37 38 38 38 38 38 38 37 36 36 34 34 33 32 30 30 29 29
13 13 13 14 15 16 17 18 20 21 22 24 25 26 28 29 31 32 33 33 34 34 35 35 35 35 35 36 36 36 35 35 34 34 33 32 31 31 30 29 28 28 28 27
14 14 15 16 17 18 20 21 22 24 25 26 28 29 30 31 31 32 32 33 33 33 33 33 33 33 33 33 33 33 32 32 31 30 30 29 29 28 27 27 26 26 26 26
16 17 18 19 20 21 22 23 24 25 26 28 29 29 30 31 31 31 31 31 31 31 31 31 31 31 31 31 30 29 29 28 28 28 27 27 26 26 25 25 25 25 25 24
18 19 20 21 22 23 24 25 26 27 27 28 29 29 30 30 30 29 29 29 29 29 28 28 28 28 28 28 27 26 26 26 26 26 25 24 24 24 24 24 24 24 24 24
Wind_Direction
268 268 266 263 263 263 264 267 270 274 276 279 284 284 286 286 284 283 286 285 283 281 273 269 265 261 260 254 251 247 248 250 252 254 253 256 259 259 263 266 268 268 269 270
267 269 269 266 264 265 266 267 269 271 272 274 274 275 277 276 278 277 276 276 277 275 269 263 260 262 263 264 257 256 258 257 261 259 258 259 260 261 265 269 271 272 273 273
266 267 268 268 268 268 268 267 267 268 269 268 266 268 269 268 269 269 269 268 271 269 265 260 260 262 263 264 266 263 263 264 266 269 269 271 268 267 270 271 272 274 275 275
267 267 268 271 270 268 267 266 266 264 262 262 261 262 263 262 263 263 263 262 263 264 261 258 259 262 263 267 268 268 268 270 273 276 277 275 274 270 271 272 273 274 276 277
267 268 270 271 271 269 267 264 262 260 259 260 257 259 260 259 260 260 259 257 258 257 256 256 257 258 262 266 269 270 272 274 275 277 278 278 277 276 276 276 277 278 278 278
269 270 271 272 270 268 266 265 261 258 256 256 255 255 256 256 257 255 255 255 255 254 253 253 254 258 263 267 269 272 274 276 278 279 279 279 279 280 280 279 280 281 281 281
270 271 272 273 271 268 265 263 258 254 251 249 249 249 250 252 253 252 252 250 250 249 250 251 253 256 261 266 270 273 275 277 279 280 281 282 283 283 283 283 283 283 283 283
269 271 274 274 272 268 265 259 254 249 246 243 244 245 247 248 250 252 247 243 243 246 247 251 254 257 262 268 272 275 277 279 281 283 284 285 285 285 285 285 285 285 285 285
267 270 272 270 269 267 262 255 250 245 242 239 240 241 241 244 246 245 241 240 239 242 246 250 255 260 265 270 274 278 280 282 283 284 285 286 287 287 287 288 288 288 288 288
267 269 269 264 263 261 257 251 245 241 236 236 233 231 233 235 241 241 239 236 239 242 247 252 257 265 271 275 278 281 283 285 286 287 288 290 290 291 291 291 291 291 290 290
271 269 265 262 257 252 247 238 232 228 223 224 222 225 227 230 232 236 238 235 240 244 247 254 262 269 275 278 281 284 286 287 288 290 291 291 292 292 293 293 292 292 292 291
263 265 265 260 251 241 232 224 220 215 213 215 219 221 222 223 227 231 232 233 239 245 252 259 266 273 277 280 283 286 287 289 290 291 292 293 293 293 293 293 293 292 292 291
257 254 261 253 237 232 224 213 205 202 204 206 206 207 211 217 220 224 229 236 245 252 260 266 272 277 280 284 286 288 289 291 292 292 293 293 293 293 293 293 292 292 292 291
259 256 246 232 216 208 205 200 194 191 191 195 199 202 208 216 223 230 236 244 253 260 267 272 277 282 285 288 289 290 291 292 292 293 293 293 293 293 293 293 293 293 293 293
242 242 221 191 178 180 184 186 183 184 188 189 191 202 215 226 234 241 249 257 265 270 275 280 284 286 288 290 291 291 292 292 293 293 294 294 294 293 293 293 294 294 294 295
216 207 181 170 164 163 160 158 166 173 179 187 203 218 232 243 251 258 264 270 276 280 283 286 287 289 290 291 292 293 293 293 294 294 295 294 294 294 294 295 295 295 296 296
207 191 178 168 162 163 165 170 179 189 196 207 226 238 248 257 264 269 274 279 283 285 286 288 289 290 292 292 293 293 293 294 294 295 295 295 295 296 296 297 297 297 297 298
203 199 190 184 181 183 191 198 209 218 227 238 247 255 262 268 273 277 280 283 286 287 289 289 291 292 293 293 293 294 294 295 296 296 297 297 298 298 299 299 300 300 299 299
209 201 200 201 205 214 221 228 236 244 251 257 262 267 271 275 279 282 285 287 288 290 291 293 294 295 295 295 296 296 296 297 298 299 299 300 301 301 302 302 302 302 302 302
210 209 211 214 220 228 234 244 253 260 265 269 273 276 279 282 284 286 288 290 292 293 294 295 295 296 296 297 297 298 299 300 301 301 302 303 303 303 303 304 304 304 303 303
213 213 218 229 236 240 247 255 261 266 270 273 276 279 282 285 287 289 291 292 294 294 294 295 296 297 297 298 299 300 302 302 303 303 304 305 305 305 305 305 305 305 305 305
220 218 225 234 239 244 252 259 266 270 274 277 281 284 287 289 291 292 293 293 294 295 296 297 297 298 299 301 302 303 304 304 304 305 306 307 307 307 308 308 307 307 307 307
223 229 237 243 246 253 261 268 273 277 280 283 286 288 289 291 292 293 294 294 295 297 298 298 299 301 302 304 305 305 305 306 307 307 309 310 310 311 311 310 309 309 309 310
234 242 249 252 256 264 270 274 278 281 284 286 287 289 291 292 293 293 295 296 297 298 299 301 302 304 305 306 306 307 308 309 310 311 312 313 313 312 312 312 311 311 311 311
246 251 256 260 266 271 275 278 281 283 285 287 289 291 292 292 293 294 295 297 298 299 300 302 304 305 307 308 309 310 312 313 314 315 315 316 316 316 315 314 314 314 315 314
254 260 265 269 273 275 278 280 282 285 287 289 290 291 292 292 294 295 296 297 298 300 303 304 306 307 309 311 313 315 316 317 318 319 319 319 319 319 319 318 318 319 319 318
262 266 270 273 275 278 280 282 284 286 287 289 290 291 292 293 294 294 295 297 300 303 305 306 308 310 313 315 317 318 319 321 322 323 323 323 323 323 323 323 322 322 322 322
Height
5804 5806 5807 5809 5811 5812 5813 5814 5815 5817 5819 5822 5823 5823 5823 5823 5823 5822 5822 5821 5821 5821 5820 5820 5820 5820 5820 5819 5819 5820 5821 5821 5822 5823 5824 5826 5826 5827 5828 5828 5828 5828 5828 5828
5795 5797 5797 5798 5801 5803 5804 5805 5807 5809 5812 5815 5816 5817 5818 5818 5819 5819 5818 5818 5818 5817 5817 5817 5817 5817 5817 5817 5817 5817 5817 5818 5819 5819 5819 5820 5821 5822 5822 5822 5822 5822 5822 5821
5784 5786 5785 5786 5792 5794 5794 5796 5798 5800 5805 5806 5809 5810 5812 5813 5814 5814 5814 5814 5814 5814 5814 5814 5814 5814 5815 5814 5814 5814 5814 5815 5815 5816 5816 5816 5816 5816 5817 5817 5816 5816 5814 5813
5773 5775 5774 5780 5781 5782 5783 5785 5788 5790 5794 5797 5800 5802 5804 5806 5807 5808 5809 5810 5810 5810 5810 5810 5810 5811 5811 5811 5811 5811 5811 5811 5811 5811 5811 5811 5811 5811 5811 5810 5809 5808 5806 5804
5764 5763 5764 5768 5769 5770 5772 5774 5777 5780 5783 5787 5790 5793 5796 5798 5800 5802 5802 5803 5804 5805 5805 5806 5806 5807 5807 5807 5807 5807 5807 5807 5807 5807 5806 5806 5806 5805 5803 5802 5801 5799 5797 5795
5755 5754 5754 5759 5759 5759 5761 5763 5767 5769 5773 5777 5780 5784 5788 5790 5792 5793 5795 5796 5798 5799 5800 5800 5801 5802 5802 5803 5803 5803 5803 5802 5802 5801 5800 5799 5798 5797 5795 5794 5792 5790 5788 5786
5747 5745 5746 5749 5749 5750 5752 5755 5757 5759 5762 5766 5770 5775 5778 5780 5783 5785 5787 5789 5790 5792 5794 5794 5795 5796 5797 5797 5797 5797 5796 5796 5795 5794 5793 5792 5790 5788 5786 5784 5782 5780 5778 5775
5739 5739 5741 5739 5739 5741 5742 5743 5746 5749 5752 5756 5760 5764 5768 5771 5774 5776 5777 5780 5783 5785 5787 5788 5789 5790 5790 5790 5790 5790 5789 5788 5787 5786 5785 5783 5781 5779 5777 5775 5772 5770 5767 5765
5733 5734 5733 5731 5731 5732 5733 5735 5737 5740 5744 5748 5751 5755 5759 5762 5765 5767 5770 5773 5775 5778 5780 5782 5783 5783 5783 5784 5783 5783 5782 5780 5779 5777 5776 5774 5771 5769 5767 5764 5761 5759 5756 5753
5727 5726 5725 5725 5725 5725 5726 5728 5730 5733 5736 5740 5743 5747 5751 5754 5758 5760 5763 5766 5769 5771 5773 5774 5775 5776 5776 5776 5776 5775 5773 5772 5770 5768 5766 5764 5761 5759 5756 5753 5750 5748 5745 5742
5721 5721 5720 5720 5719 5720 5721 5722 5724 5727 5730 5733 5737 5741 5744 5748 5751 5754 5757 5759 5762 5764 5766 5767 5768 5769 5769 5768 5767 5766 5764 5763 5761 5758 5756 5754 5751 5748 5745 5742 5739 5736 5732 5729
5718 5717 5716 5716 5716 5716 5717 5719 5721 5723 5726 5729 5732 5736 5739 5743 5746 5749 5752 5754 5756 5758 5760 5761 5761 5761 5761 5760 5759 5757 5756 5754 5751 5749 5746 5743 5740 5737 5734 5731 5727 5723 5719 5715
5714 5714 5713 5713 5713 5714 5715 5717 5718 5720 5723 5726 5729 5733 5736 5739 5742 5745 5747 5750 5752 5753 5754 5754 5754 5754 5753 5752 5750 5749 5747 5744 5742 5739 5736 5733 5729 5726 5722 5719 5714 5710 5705 5701
5712 5711 5711 5711 5711 5712 5713 5715 5717 5719 5722 5725 5728 5730 5733 5736 5739 5741 5743 5745 5746 5747 5748 5748 5747 5747 5745 5744 5742 5740 5737 5735 5732 5728 5725 5722 5718 5714 5709 5705 5700 5695 5690 5685
5710 5710 5710 5710 5710 5711 5712 5714 5717 5719 5722 5724 5727 5729 5731 5734 5736 5738 5739 5740 5741 5741 5741 5741 5740 5739 5737 5735 5733 5730 5728 5725 5721 5718 5714 5710 5705 5701 5696 5691 5686 5680 5675 5669
5709 5709 5709 5710 5710 5711 5713 5715 5717 5720 5722 5724 5726 5728 5730 5732 5733 5734 5735 5736 5736 5736 5735 5734 5732 5731 5729 5726 5724 5721 5718 5714 5710 5706 5702 5697 5692 5687 5682 5676 5670 5665 5659 5653
5707 5708 5710 5710 5711 5712 5714 5716 5718 5720 5722 5723 5725 5727 5728 5729 5730 5731 5731 5731 5730 5729 5728 5727 5725 5723 5720 5717 5714 5711 5707 5703 5699 5694 5689 5684 5678 5673 5667 5661 5655 5649 5644 5638
5706 5707 5709 5710 5711 5713 5715 5716 5718 5719 5721 5722 5723 5724 5725 5725 5726 5725 5725 5724 5723 5722 5721 5719 5716 5713 5710 5707 5703 5699 5695 5691 5686 5681 5675 5670 5664 5658 5652 5646 5641 5635 5630 5625
5704 5706 5707 5709 5711 5712 5714 5715 5716 5717 5718 5719 5720 5720 5721 5720 5720 5720 5719 5718 5716 5714 5712 5709 5707 5703 5700 5696 5692 5688 5683 5678 5672 5667 5662 5656 5650 5645 5639 5633 5628 5622 5617 5613
5702 5704 5705 5707 5709 5710 5711 5712 5713 5714 5715 5715 5715 5715 5715 5715 5714 5713 5712 5710 5708 5706 5703 5700 5697 5693 5689 5685 5680 5676 5671 5665 5660 5655 5649 5644 5638 5633 5627 5622 5617 5612 5607 5602
5699 5701 5703 5705 5706 5707 5708 5709 5710 5710 5710 5711 5711 5710 5710 5709 5708 5706 5704 5702 5699 5697 5694 5690 5687 5683 5678 5674 5669 5664 5659 5654 5649 5643 5638 5633 5627 5622 5616 5611 5607 5602 5597 5593
5697 5698 5700 5701 5703 5704 5704 5705 5706 5706 5706 5705 5705 5704 5703 5702 5700 5698 5696 5693 5690 5687 5684 5680 5676 5672 5668 5663 5658 5654 5649 5643 5638 5633 5627 5622 5617 5612 5607 5602 5597 5593 5589 5585
5694 5695 5697 5698 5699 5699 5700 5700 5700 5700 5700 5699 5698 5697 5696 5694 5692 5689 5687 5684 5681 5677 5674 5670 5666 5662 5658 5653 5648 5643 5638 5633 5628 5623 5618 5613 5608 5603 5598 5594 5589 5585 5581 5577
5691 5692 5693 5694 5694 5695 5695 5695 5694 5694 5693 5692 5691 5689 5687 5685 5683 5680 5677 5674 5671 5668 5664 5660 5657 5653 5648 5644 5639 5634 5629 5624 5619 5614 5609 5604 5600 5595 5591 5586 5582 5578 5575 5571
5686 5687 5688 5689 5689 5689 5689 5688 5688 5687 5686 5684 5682 5681 5678 5676 5674 5671 5668 5665 5662 5659 5655 5652 5648 5644 5640 5635 5630 5626 5621 5616 5611 5606 5602 5597 5593 5588 5584 5580 5576 5572 5568 5564
5682 5683 5683 5683 5683 5683 5682 5682 5681 5679 5678 5676 5674 5672 5669 5667 5664 5662 5659 5656 5653 5650 5647 5643 5640 5636 5631 5627 5622 5618 5613 5609 5605 5600 5596 5591 5587 5583 5579 5575 5571 5566 5563 5559
5677 5677 5677 5677 5676 5676 5675 5674 5673 5671 5670 5668 5665 5663 5661 5658 5656 5653 5651 5648 5645 5642 5639 5635 5632 5628 5624 5620 5616 5611 5607 5603 5599 5595 5590 5586 5582 5578 5574 5570 5565 5561 5557 5553